Location: Newark
(22.3060°N, 114.2134°E)
Time: 07:48:50
(UTC+00:00)

Vanguard 2 - Pass Details

Date: 05 August 2021
Orbit: 553 x 2937 km, 32.9° (Epoch: 24 September)

Event Time Altitude Azimuth Distance (km) Brightness Sun altitude
Rises 23:45:42 0° 300° (WNW) 2,959 10.1 23.6°
Reaches altitude 10° 23:47:43 10° 304° (NW) 2,190 9.5 24.0°
Maximum altitude 23:52:40 58° 24° (NNE) 1,071 9.0 25.2°
Drops below altitude 10° 00:00:34 10° 103° (ESE) 3,447 12.2 27.0°
Sets 00:04:30 0° 106° (ESE) 4,836 12.6 27.9°
